Location: Arboucave
(43.6130°N, 0.4343°W)
Time: 12:28:29
(UTC+00:00)

Cosmos 407 Rocket - Pass Details

Date: 17 November 2025
Orbit: 740 x 780 km, 74.0° (Epoch: 11 December)

Event Time Altitude Azimuth Distance (km) Brightness Sun altitude
Rises 17:00:35 0° 180° (S) 3,209 7.0 -5.1°
Reaches altitude 10° 17:03:02 10° 174° (S) 2,281 6.2 -5.5°
Maximum altitude 17:07:55 44° 104° (ESE) 1,036 3.9 -6.4°
Drops below altitude 10° 17:12:47 10° 33° (NNE) 2,273 5.5 -7.2°
Sets 17:15:13 0° 27° (NNE) 3,197 6.3 -7.6°
Enters shadow 17:15:22 -1° 27° (NNE) 3,255 6.3 -7.6°
